Date String (YYYY-MM-DD hh:mm:ss) UTC,Instrument flags,absolute air pressure of the measurement (hPa),sample flow rate (lpm),inlet stack bypass flow (lpm),air temperature of the measurement (°C),ambient temperature measured by the external sensor (°C),aerosol sample conditioner tube jacket temperature (°C),OPC LED temperature (°C),internal box temperature (°C),relative humidity of the measurement (%),span deviation,mass concentration of particles derived from Lorenz-Mie calculation of OPC scattering (μg/m³),mass concentration of particles derived from Lorenz-Mie calculation of OPC scattering (μg/m³),mass concentration of particles derived from Lorenz-Mie calculation of OPC scattering (μg/m³)
DateTimeUTC,F1_M11,P_M11,Q1_M11,Q2_M11,T1_M11,T2_M11,T3_M11,T4_M11,T5_M11,U1_M11,ZSPAN_M11,X0_M11,X2_M11,X1_M11
2023-09-09 21:00:00,SystemResetWarning,0836.1,5.01,000.00,027.6,024.5,000.0,035.8,029.1,17.2,0003.2,0013.18,0003.67,0002.51
2023-09-09 21:01:00,SystemResetWarning,0836.1,4.99,000.00,027.6,024.9,000.0,035.8,029.1,17.6,0003.1,0013.46,0003.64,0002.51
2023-09-09 21:02:00,SystemResetWarning,0836.1,5.00,000.00,027.6,025.3,000.0,035.8,029.1,17.8,0003.1,0013.55,0003.65,0002.52
2023-09-09 21:03:00,SystemResetWarning,0836.1,5.01,000.00,027.6,025.8,000.0,035.8,029.2,18.3,0002.6,0012.87,0003.67,0002.52
2023-09-09 21:04:00,SystemResetWarning,0836.1,5.00,000.00,027.7,026.1,000.0,035.9,029.4,18.2,0000.0,0012.24,0003.60,0002.51
2023-09-09 21:05:00,SystemResetWarning,0836.1,4.99,000.00,027.7,026.5,000.0,035.9,029.5,18.2,0000.0,0012.37,0003.59,0002.52
2023-09-09 21:06:00,SystemResetWarning,0836.1,4.99,000.00,027.8,026.2,000.0,035.9,029.4,18.0,0002.2,0012.85,0003.59,0002.57
2023-09-09 21:07:00,SystemResetWarning,0836.0,5.00,000.00,027.7,024.7,000.0,035.8,029.1,17.7,0000.7,0012.86,0003.60,0002.61
2023-09-09 21:08:00,SystemResetWarning,0835.9,5.02,000.00,027.7,024.2,000.0,035.8,029.0,17.8,0000.0,0012.54,0003.59,0002.60
2023-09-09 21:09:00,SystemResetWarning,0835.9,5.00,000.00,027.6,024.5,000.0,035.7,029.1,17.8,0000.0,0012.78,0003.59,0002.57
2023-09-09 21:10:00,SystemResetWarning,0835.9,4.99,000.00,027.6,024.8,000.0,035.8,029.0,18.0,0000.0,0012.16,0003.60,0002.60
2023-09-09 21:11:00,SystemResetWarning,0836.0,5.01,000.00,027.6,025.3,000.0,035.8,029.1,18.4,0000.0,0012.09,0003.62,0002.61
2023-09-09 21:12:00,SystemResetWarning,0836.0,5.00,000.00,027.6,025.7,000.0,035.8,029.2,18.5,0000.0,0011.85,0003.72,0002.65
2023-09-09 21:13:00,SystemResetWarning,0836.1,5.00,000.00,027.7,026.1,000.0,035.9,029.3,18.2,0000.0,0011.74,0003.74,0002.68
2023-09-09 21:14:00,SystemResetWarning,0836.1,5.00,000.00,027.7,026.4,000.0,035.9,029.4,17.7,0000.0,0012.67,0003.76,0002.72
2023-09-09 21:15:00,SystemResetWarning,0836.1,5.00,000.00,027.8,026.6,000.0,035.9,029.5,17.6,0000.0,0013.14,0003.84,0002.76
2023-09-09 21:16:00,SystemResetWarning,0836.1,4.97,000.00,027.8,025.7,000.0,035.9,029.4,17.0,0000.0,0013.34,0003.85,0002.79
2023-09-09 21:17:00,SystemResetWarning,0836.0,5.01,000.00,027.7,024.4,000.0,035.8,029.0,17.0,0000.0,0014.51,0003.93,0002.80
2023-09-09 21:18:00,SystemResetWarning,0835.9,5.02,000.00,027.6,024.3,000.0,035.8,029.1,18.3,0000.0,0016.21,0003.96,0002.83
2023-09-09 21:19:00,SystemResetWarning,0835.9,4.99,000.00,027.6,024.7,000.0,035.8,029.0,19.0,0000.5,0016.87,0003.96,0002.87
2023-09-09 21:20:00,SystemResetWarning,0836.0,4.99,000.00,027.6,025.1,000.0,035.8,029.1,18.5,0000.0,0016.83,0003.97,0002.94
2023-09-09 21:21:00,SystemResetWarning,0836.0,5.01,000.00,027.6,025.5,000.0,035.8,029.2,17.9,0000.8,0016.31,0004.02,0002.99
2023-09-09 21:22:00,SystemResetWarning,0836.0,5.01,000.00,027.6,025.9,000.0,035.8,029.3,18.4,0001.1,0016.41,0004.10,0003.05
2023-09-09 21:23:00,SystemResetWarning,0836.0,4.99,000.00,027.7,026.3,000.0,035.9,029.4,18.7,0000.5,0016.37,0004.10,0003.11
2023-09-09 21:24:00,SystemResetWarning,0836.0,4.99,000.00,027.7,026.6,000.0,035.9,029.5,17.0,0000.8,0016.83,0004.12,0003.14
2023-09-09 21:25:00,SystemResetWarning,0835.9,5.00,000.00,027.8,025.8,000.0,035.9,029.4,15.8,0001.4,0015.93,0004.14,0003.16
2023-09-09 21:26:00,SystemResetWarning,0835.9,5.01,000.00,027.7,024.4,000.0,035.8,029.1,14.9,0000.6,0015.52,0004.11,0003.17
2023-09-09 21:27:00,SystemResetWarning,0835.9,5.01,000.00,027.6,024.3,000.0,035.7,029.1,15.5,0000.4,0015.46,0004.09,0003.18
2023-09-09 21:28:00,SystemResetWarning,0835.9,5.00,000.00,027.6,024.6,000.0,035.7,029.1,15.5,0000.7,0013.86,0004.04,0003.19
2023-09-09 21:29:00,SystemResetWarning,0835.9,5.00,000.00,027.6,025.0,000.0,035.8,029.1,14.5,0000.8,0011.95,0004.00,0003.21
2023-09-09 21:30:00,SystemResetWarning,0835.9,5.00,000.00,027.6,025.5,000.0,035.8,029.2,15.3,0001.3,0010.97,0004.04,0003.22
2023-09-09 21:31:00,SystemResetWarning,0836.0,5.00,000.00,027.6,025.9,000.0,035.8,029.3,16.1,0001.7,0010.59,0004.09,0003.23
2023-09-09 21:32:00,SystemResetWarning,0835.9,5.01,000.00,027.7,026.2,000.0,035.9,029.4,15.9,0001.4,0010.24,0004.06,0003.26
2023-09-09 21:33:00,SystemResetWarning,0835.9,5.00,000.00,027.7,026.5,000.0,035.9,029.5,16.8,0001.5,0010.51,0004.04,0003.28
2023-09-09 21:34:00,SystemResetWarning,0835.9,4.98,000.00,027.8,026.5,000.0,035.9,029.5,16.3,0001.1,0011.20,0004.04,0003.28
2023-09-09 21:35:00,SystemResetWarning,0835.9,5.00,000.00,027.8,025.1,000.0,035.9,029.2,16.0,0000.9,0011.96,0004.10,0003.27
2023-09-09 21:36:00,SystemResetWarning,0835.8,5.01,000.00,027.7,024.2,000.0,035.8,029.0,15.8,0001.1,0012.55,0004.11,0003.27
2023-09-09 21:37:00,SystemResetWarning,0835.8,5.01,000.00,027.6,024.4,000.0,035.8,029.1,16.1,0001.7,0013.21,0004.11,0003.28
2023-09-09 21:38:00,SystemResetWarning,0835.8,4.99,000.00,027.6,024.7,000.0,035.8,029.0,17.4,0002.3,0013.68,0004.13,0003.28
2023-09-09 21:39:00,SystemResetWarning,0835.8,5.00,000.00,027.6,025.2,000.0,035.8,029.1,16.0,0002.6,0014.51,0004.15,0003.30
2023-09-09 21:40:00,SystemResetWarning,0835.8,5.00,000.00,027.6,025.6,000.0,035.8,029.2,15.6,0003.2,0015.28,0004.17,0003.30
2023-09-09 21:41:00,SystemResetWarning,0835.8,5.00,000.00,027.7,026.0,000.0,035.9,029.3,15.5,0003.1,0015.28,0004.16,0003.32
2023-09-09 21:42:00,SystemResetWarning,0835.8,5.00,000.00,027.7,026.4,000.0,035.9,029.4,15.0,0003.2,0015.12,0004.14,0003.31
2023-09-09 21:43:00,SystemResetWarning,0835.9,4.99,000.00,027.8,026.7,000.0,035.9,029.5,14.2,0002.8,0015.67,0004.14,0003.30
2023-09-09 21:44:00,SystemResetWarning,0835.8,4.99,000.00,027.8,026.2,000.0,035.9,029.5,13.5,0003.2,0015.15,0004.14,0003.28
2023-09-09 21:45:00,SystemResetWarning,0835.8,5.00,000.00,027.8,024.7,000.0,035.8,029.2,14.1,0003.4,0014.71,0004.14,0003.28
2023-09-09 21:46:00,SystemResetWarning,0835.8,5.01,000.00,027.7,024.3,000.0,035.8,029.1,14.4,0003.5,0013.66,0004.13,0003.29
2023-09-09 21:47:00,SystemResetWarning,0835.7,5.01,000.00,027.7,024.6,000.0,035.8,029.1,14.1,0003.5,0013.23,0004.14,0003.29
2023-09-09 21:48:00,SystemResetWarning,0835.7,4.99,000.00,027.6,025.0,000.0,035.8,029.1,14.3,0003.2,0013.23,0004.14,0003.30
2023-09-09 21:49:00,SystemResetWarning,0835.8,5.01,000.00,027.6,025.5,000.0,035.8,029.2,14.9,0003.0,0012.65,0004.17,0003.31
2023-09-09 21:50:00,SystemResetWarning,0835.8,4.99,000.00,027.7,025.9,000.0,035.9,029.3,15.0,0002.1,0012.87,0004.15,0003.29
2023-09-09 21:51:00,SystemResetWarning,0835.6,4.99,000.00,027.7,026.3,000.0,035.9,029.4,15.1,0001.0,0012.46,0004.14,0003.28
2023-09-09 21:52:00,SystemResetWarning,0835.7,5.00,000.00,027.8,026.6,000.0,035.9,029.5,15.2,0000.8,0012.46,0004.15,0003.26
2023-09-09 21:53:00,SystemResetWarning,0835.6,5.00,000.00,027.8,026.8,000.0,036.0,029.6,16.2,0000.5,0012.15,0004.15,0003.26
2023-09-09 21:54:00,SystemResetWarning,0835.7,5.00,000.00,027.9,025.6,000.0,035.9,029.4,16.6,0000.6,0011.94,0004.23,0003.28
2023-09-09 21:55:00,SystemResetWarning,0835.6,5.01,000.00,027.8,024.4,000.0,035.8,029.1,16.5,-000.1,0012.36,0004.31,0003.30
2023-09-09 21:56:00,SystemResetWarning,0835.6,5.01,000.00,027.7,024.4,000.0,035.8,029.2,15.9,-000.5,0012.38,0004.32,0003.32
2023-09-09 21:57:00,SystemResetWarning,0835.7,5.00,000.00,027.7,024.8,000.0,035.8,029.2,15.2,-000.6,0012.57,0004.33,0003.34
2023-09-09 21:58:00,SystemResetWarning,0835.7,4.98,000.00,027.7,025.2,000.0,035.8,029.2,15.2,-000.8,0014.04,0004.37,0003.37
2023-09-09 21:59:00,SystemResetWarning,0835.8,5.00,000.00,027.7,025.6,000.0,035.9,029.3,15.2,-000.8,0014.14,0004.41,0003.39
